Regional Weather Roundup
Issued by NWS Huntsville, AL

Home | Current Version | Previous Version | Text Only | Print | Product List | Glossary On
Versions: 1 2 3 4 5 6 7 8 9 10 11 12 13 14 15 16 17 18 19 20 21 22 23 24 25 26 27 28 29 30 31 32 33 34 35 36 37 38 39 40 41 42 43 44 45 46 47 48 49 50
000
ASUS44 KHUN 191710
RWRHUN

WEATHER ROUNDUP FOR THE TENNESSEE VALLEY
NATIONAL WEATHER SERVICE HUNTSVILLE AL
1200 PM CDT WED JUN 19 2019

ALZ001>004-191800-
NORTHWEST ALABAMA

CITY           SKY/WX    TMP DP  RH WIND       PRES   REMARKS
SHOALS AIRPORT PTSUNNY   86  69  56 SW15      29.85F HX  90
$$

ALZ005>007-016-191800-
NORTH CENTRAL ALABAMA

CITY           SKY/WX    TMP DP  RH WIND       PRES   REMARKS
CULLMAN AG STN   N/A     81 N/A N/A W8          N/A
DECATUR AP     FAIR      84  73  69 S9        29.86F HX  90
HUNTSVILLE AP  PTSUNNY   85  70  60 W13       29.86F
MERIDIANVILLE  MOSUNNY   83  71  66 SW9       29.86F
VINEMONT AP    PTSUNNY   81  70  67 S7        29.91F
$$

ALZ008>010-191800-
NORTHEAST ALABAMA

CITY           SKY/WX    TMP DP  RH WIND       PRES   REMARKS
ALBERTVILLE    PTSUNNY   81  68  65 CALM      29.90F
FORT PAYNE     CLOUDY    82  70  67 SW10      29.87F
SCOTTSBORO AP  FAIR      82  75  78 SW9       29.88S
$$

TNZ076-096-097-191800-
SOUTHEASTERN MIDDLE TENNESSEE

CITY           SKY/WX    TMP DP  RH WIND       PRES   REMARKS
FAYETTEVILLE   PTSUNNY   81  72  74 SW8G16    29.86F
TULLAHOMA      PTSUNNY   79  72  78 SW6       29.86F
WINCHESTER     MOSUNNY   77  72  83 SW6       29.86F HAZE
$$

...SURROUNDING SITES...

CITY           SKY/WX    TMP DP  RH WIND       PRES   REMARKS
ATLANTA        FAIR      84  70  62 W13G18    29.90F
ANNISTON       PTSUNNY   81  72  74 SW9       29.90F
BIRMINGHAM     FAIR      86  70  58 W14G20    29.90F HX  90
CHATTANOOGA    PTSUNNY   85  68  56 CALM      29.86F
CORINTH        FAIR      86  70  58 W8G16     29.82F HX  90
DALTON         PTSUNNY   84  68  58 S5        29.90S
GADSDEN        PTSUNNY   82  77  83 S6        29.88F HX  91
GOLDEN TRNGL   FAIR      87  72  60 SW10      29.86F HX  93
HALEYVILLE     PTSUNNY   83  71  67 SW9       29.89F
JACKSON TN     FAIR      85  73  67 SW10      29.80F HX  91
MEMPHIS        PTSUNNY   86  74  67 S13G18    29.78F HX  94
NASHVILLE      PTSUNNY   85  69  58 SW12      29.81F
OXFORD MS      FAIR      84  70  61 S10       29.84F
ROME           FAIR      84  71  65 SW9       29.87F
SAVANNAH       PTSUNNY   86  72  62 SW9G18    29.81F HX  92
SELMER         MOSUNNY   84  72  65 SW8       29.81F
TUPELO         FAIR      88  70  55 W8        29.83F HX  93
TUSCALOOSA     PTSUNNY   89  72  56 W10       29.86F HX  96
$$





USA.gov is the U.S. government's official web portal to all federal, state and local government web resources and services.